Other Public Products
Issued by NWS Grand Forks, ND

Home | Current Version | Previous Version | Graphics & Text | Print | Product List | Glossary On
Versions: 1 2 3 4 5 6 7 8 9 10 11 12 13 14 15 16 17 18 19 20 21 22 23 24 25 26 27 28 29 30 31 32 33 34 35 36 37 38 39 40 41 42 43 44 45 46 47 48 49 50
395
FPUS83 KFGF 120910
OPUFGF
PRAIRIE TO PINES WEATHER ROUNDUP
NATIONAL WEATHER SERVICE EASTERN NORTH DAKOTA/GRAND FORKS ND
300 AM CST TUE DEC 12 2017

 **SATELLITE DATA USED TO AUGMENT SKY COVER AT AUTOMATED STATIONS**
 *****  WEATHER ACROSS EASTERN NORTH DAKOTA  *****

CITY           SKY/WX    TMP DP  RH WIND       PRES   REMARKS
GRAND FORKS    CLOUDY    15  11  83 S7        30.22F WCI   5
GRND FORKS AFB CLOUDY    17  13  83 SW8       30.21F WCI   7
GRND FORKS NWS   N/A     14 N/A N/A S7          N/A  WCI   4
BUXTON         NOT AVBL
DEVILS LAKE    CLOUDY    24  21  88 SW7       30.15F WCI  16
FARGO          CLOUDY    11   7  84 S7        30.27F WCI   0
WAHPETON ARPT    N/A      7   3  85 SW3       30.29F
$$

 *****  WEATHER ACROSS CENTRAL AND WESTERN NORTH DAKOTA  *****

CITY           SKY/WX    TMP DP  RH WIND       PRES   REMARKS
JAMESTOWN      CLOUDY    25  22  88 W9        30.19F WCI  15
BISMARCK       FAIR      25  23  92 W3        30.24F
MINOT          FAIR      30  26  85 SW14      30.14F WCI  19
MINOT AFB      FAIR      28  25  88 W10       30.13F WCI  18
GARRISON         N/A     25  23  92 W9        30.18F WCI  15
WILLISTON        N/A    N/A N/A N/A MISG      30.20F
DICKINSON      FAIR      24  22  91 SW7       30.20F WCI  16
HETTINGER      FAIR      20  17  88 W7        30.27F WCI  11
$$

 *****  OTHER OBSERVATIONS NORTHEAST NORTH DAKOTA  *****

CITY           SKY/WX    TMP DP  RH WIND       PRES   REMARKS
WALHALLA       FAIR      16  18 100 SE5       30.16F WCI   9
LANGDON          N/A     21  21 100 SW12      30.13F WCI   9
CAVALIER       CLOUDY    16  12  86 S8        30.17F WCI   5
GRAFTON        PTSUNNY   14  12  92 S8        30.21F WCI   3
CANDO          CLOUDY    25  25 100 W5        30.15F WCI  19
FORT TOTTEN      N/A     24  21  87 CALM      29.95S
ROLLA          CLOUDY    25  23  93 SW10      30.10F WCI  15
RUGBY          CLOUDY    27  27 100 SW10      30.13F WCI  17
 ***** THE ABOVE OBSERVATIONS ARE NON NWS ARE NOT QUALITY
        CONTROLLED AND MAY MIS-REPORT RAIN FOR SNOW...
$$

 *****  OTHER OBSERVATIONS SOUTHEAST NORTH DAKOTA *****

CITY           SKY/WX    TMP DP  RH WIND       PRES   REMARKS
COOPERSTOWN    CLOUDY    16  14  93 SW6       30.20F WCI   7
VALLEY CITY    PTSUNNY   12  12 100 CALM      30.22F
OAKES            N/A     19  18  93 SW7       30.25F WCI  10
GWINNER          N/A     16  14  93 SW10      30.24F WCI   3
BUFFALO        NOT AVBL
WYNDMERE       NOT AVBL
 ***** THE ABOVE OBSERVATIONS ARE NON NWS ARE NOT QUALITY
       CONTROLLED AND MAY MIS-REPORT RAIN FOR SNOW...
$$

  *****  WEATHER ACROSS NORTHERN MINNESOTA  *****

CITY           SKY/WX    TMP DP  RH WIND       PRES   REMARKS
FLAG ISLAND    NOT AVBL
WARROAD        FAIR      -4  -8  84 CALM      30.19F
ROSEAU         FAIR      -6  -9  84 S6        30.19F WCI -18
HALLOCK        CLOUDY    10   9  92 S8        30.19F WCI  -1
THF RVR FALLS  CLOUDY     4   2  91 SW7       30.22F WCI  -8
HALSTAD        NOT AVBL
FOSSTON        FLURRIES   0  -2  92 SW6       30.22F WCI -12
BAUDETTE       CLOUDY    -3  -7  82 W3        30.18F
WASKISH        FAIR       0  -2  92 CALM      30.19F
CROOKSTON      CLOUDY    10   9  92 S7        30.25F WCI   0
$$
  *****  WEATHER ACROSS CENTRAL AND WEST MINNESOTA  *****

CITY           SKY/WX    TMP DP  RH WIND       PRES   REMARKS
BEMIDJI        FAIR      -2  -5  87 W5        30.18F WCI -12
PARK RAPIDS    FAIR      -6 -10  83 W3        30.20S
WADENA         CLOUDY     1  -2  85 W6        30.22F WCI -10
DETROIT LAKES  MOCLDY     7   3  85 W7        30.24F WCI  -5
MOORHEAD       MOCLDY     7   3  85 CALM      30.29S
FERGUS FALLS   MOCLDY     3   1  92 NW5       30.32F WCI  -6
ELBOW LAKE     FAIR       5   2  88 CALM      30.28F
MORRIS MN      FAIR       7   3  85 W7        30.28F WCI  -5
STAPLES        FAIR      -2  -6  84 W7        30.22F WCI -16
WHEATON        FAIR       9   5  85 SW3       30.31F
$$
  *****  WEATHER ELSEWHERE ACROSS MINNESOTA  *****

CITY           SKY/WX    TMP DP  RH WIND       PRES   REMARKS
DULUTH         FAIR       1  -2  87 NW7       30.13S WCI -12
INTRNTL FALLS  FAIR      -4  -8  83 W5        30.17F WCI -15
ELY            FAIR       0  -6  78 NW3       30.11F
CLOQUET        FAIR       3  -2  78 CALM      30.16R
BRAINERD       FAIR       3  -2  79 W6        30.23R WCI  -8
HIBBING        MOCLDY    -1  -3  91 NW7       30.14F WCI -14
ALEXANDRIA     FAIR       5   1  83 W9        30.26S WCI  -9
SAINT CLOUD    FAIR       4   1  88 NW8       30.26R WCI  -9
MINNEAPOLIS    FAIR      10   5  80 NW13      30.26R WCI  -5
$$

  *****  WEATHER ACROSS SOUTH DAKOTA  *****

CITY           SKY/WX    TMP DP  RH WIND       PRES   REMARKS
SIOUX FALLS    FAIR      14  11  87 NW6       30.30F WCI   5
BROOKINGS      FAIR      12   9  87 CALM      30.29F
WATERTOWN      FAIR      12  10  92 W8        30.26F WCI   0
HURON          CLOUDY    22  18  85 CALM      30.32F
SISSETON         N/A      9   6  88 CALM      30.28F
ABERDEEN       CLOUDY    19  17  92 SW5       30.30F WCI  12
MITCHELL       MOCLDY    19  16  88 W6        30.35S WCI  11
PIERRE         CLOUDY    32  31  96 SW5       30.29F
MOBRIDGE       CLOUDY    28  25  88 CALM      30.24F
RAPID CITY     FAIR      21  15  78 CALM      30.31F
$$

  *****  SOME WEATHER IN NEARBY STATES *****

CITY           SKY/WX    TMP DP  RH WIND       PRES   REMARKS
GLASGOW MT     FAIR      27  21  78 CALM      30.19F
GREAT FALLS MT FAIR      44   7  21 SW16      30.26F
CHEYENNE WY    FAIR      32  17  54 W9        30.39F WCI  24
SCOTTSBLUFF NE FAIR      21  13  71 W7        30.38F WCI  12
OMAHA NE       FAIR      16   9  74 N7        30.37R WCI   6
DES MOINES IA  FAIR      17  10  74 NW10      30.28R WCI   5
DAVENPORT IA   FAIR      21  13  71 NW18      30.15R WCI   6
CHICAGO IL     FLURRIES  23  13  65 NW18G28   29.99R WCI   9
EAU CLAIRE WI  CLOUDY    11   3  70 NW9       30.17R WCI  -2
LA CROSSE WI   FAIR      16   7  67 NW13      30.17R WCI   2
$$

  *****  SOME NATIONAL WEATHER *****

CITY           SKY/WX    TMP DP  RH WIND       PRES   REMARKS
LA GUARDIA NY  CLOUDY    44  33  65 S8        29.79F
RALEIGH NC     MOCLDY    41  33  73 SW10      29.78F
ATLANTA GA     MOCLDY    44  37  76 SW6       29.87F
NEW ORLEANS LA FAIR      53  48  83 SW10      30.09F
OKLAHOMA CITY  FAIR      39  28  64 N16       30.38R
ALBUQUERQUE NM FAIR      34   3  27 NE9       30.48R
SALT LAKE CITY FOG       25  23  92 CALM      30.61R VSB 1/4
LOS ANGELES CA FAIR      61  14  16 NE3       30.19S
BOISE ID       CLOUDY    24  21  88 N5        30.67S WCI  18
SEATTLE WA     FAIR      39  24  55 SE7       30.44R
$$

*** WEATHER ACROSS MANITOBA...SASKATCHEWAN AND ONTARIO ***
                ***ONTARIO***

CITY           SKY/WX    TMP DP  RH WIND       PRES   REMARKS
GERALDTON      FLURRIES  -6 -11  77 NW6       30.02S WCI -18
THUNDER BAY    FLURRIES   5  -4  66 NW7       30.11F WCI  -7
SIOUX LOOKOUT  NOT AVBL
TORONTO        LGT SNOW  27  25  93 N6        29.54F WCI  20
BIG TROUT LK   FLURRIES  -9 -15  77 W9        30.06S WCI -27
PICKLE LAKE    NOT AVBL
DRYDEN         CLEAR     -8 -11  84 W7        30.10F WCI -22
KENORA         MOCLDY    -2  -6  84 NW5       30.13F WCI -12
$$
                *** MANITOBA***

CITY           SKY/WX    TMP DP  RH WIND       PRES   REMARKS
BRANDON        MOCLDY    23  21  93 W6        30.08F WCI  16
DAUPHIN        CLOUDY    21  19  93 S5        30.04F WCI  15
ISLAND LAKE    PTCLDY   -18 -24  76 SE3       30.09F
PILOT MOUND      N/A     21  19  93 S8          N/A  WCI  12
THE PAS        LGT SNOW  14  12  92 SE10      29.97F WCI   1
THOMPSON       MOCLDY    -9 -15  77 E3        30.06R
WINNIPEG       CLOUDY     9   5  85 S8        30.17F WCI  -4
LYNN LAKE      LGT SNOW   1   0  92 SE8       29.89F WCI -12
CHURCHILL      CRYSTALS -20 -26  76 W8        30.05S WCI -39
GILLAM         CLEAR    -20 -26  76 SW6       30.07S WCI -36
$$
                ***SASKATCHEWAN***

CITY           SKY/WX    TMP DP  RH WIND       PRES   REMARKS
ESTEVAN        PTCLDY    27  23  86 SW9       30.12F WCI  17
KINDERSLEY     CLEAR     28  21  74 SW9       30.03F WCI  20
LLOYDMINSTER   CLEAR     36  25  64 W16       29.93F
PRINCE ALBERT  CLEAR     28  23  80 W5        29.94F WCI  23
REGINA         CLOUDY    30  25  80 SW12      30.07F WCI  21
YORKTON        MOCLDY    25  23  93 SW9       30.01F WCI  15
N. BATTLEFORD  CLEAR     25  19  80 SW3       29.97F



USA.gov is the U.S. government's official web portal to all federal, state and local government web resources and services.